Regional Weather Roundup
Issued by NWS

Home | Current Version | Previous Version | Text Only | Print | Product List | Glossary On
Versions: 1 2 3 4 5 6 7 8 9 10 11 12 13 14 15 16 17 18 19 20 21 22 23 24 25 26 27 28 29 30 31 32 33 34 35 36 37 38 39 40 41 42 43 44 45 46 47 48 49 50
000
ASUS43 KTOP 041559
RWRKS

WEATHER ROUNDUP FOR KANSAS
NATIONAL WEATHER SERVICE GOODLAND KS
1100 AM CDT TUE AUG 04 2015

NOTE:  "FAIR" INDICATES FEW OR NO CLOUDS BELOW 12,000 FEET WITH NO
SIGNIFICANT WEATHER AND/OR OBSTRUCTIONS TO VISIBILITY.

KSZ001>006-013>018-027>032-041>047-041700-
NORTHWEST KANSAS

CITY           SKY/WX    TMP DP  RH WIND       PRES   REMARKS
GOODLAND       SUNNY     80  65  59 S6        29.96F
HAYS           CLOUDY    81  64  57 SW6       29.95S
HILL CITY      CLOUDY    81  69  67 SE9       29.93F
RUSSELL        PTSUNNY   79  69  71 S9        29.94F
$$

KSZ061>065-074>080-084>089-041700-
SOUTHWEST KANSAS

CITY           SKY/WX    TMP DP  RH WIND       PRES   REMARKS
DODGE CITY     CLOUDY    71  66  84 S6        29.98S
ELKHART          N/A     79  62  56 SW5         N/A
GARDEN CITY    MOSUNNY   76  64  66 S8        29.96F
GREAT BEND     CLOUDY    73  64  73 SW10      29.96S THUNDER
LIBERAL        SUNNY     77  66  69 SW8       29.99S
PRATT          LGT RAIN  72  68  88 S5        30.00R
$$

KSZ066>073-081>083-090>101-041700-
SOUTHEAST KANSAS

CITY           SKY/WX    TMP DP  RH WIND       PRES   REMARKS
CHANUTE        CLOUDY    82  70  66 W10       29.99S
COFFEYVILLE    CLOUDY    82  70  66 SW7       29.99R
HUTCHINSON     CLOUDY    79  67  66 SW8       29.98R
NEWTON         CLOUDY    81  64  57 S7        30.00S
PARSONS        CLOUDY    81  72  74 SW7       30.01R
WICHITA INTL   CLOUDY    78  68  71 S12       29.98R
WICHITA JABRA  CLOUDY    79  68  69 S10       29.98R
$$

KSZ007>012-019>026-033>040-048>060-102>105-041700-
NORTHEAST KANSAS

CITY           SKY/WX    TMP DP  RH WIND       PRES   REMARKS
CONCORDIA      PTSUNNY   79  71  76 E9        29.97S
EMPORIA        CLOUDY    80  69  69 S9        29.97S
LAWRENCE       CLOUDY    82  71  69 CALM      29.99R
MANHATTAN      CLOUDY    84  69  60 NW5       29.96S
OLATHE IND     PTSUNNY   83  69  62 VRB3      30.00R
OLATHE EXE     PTSUNNY   83  70  64 S5        29.99R
SALINA         CLOUDY    83  69  62 SE6       29.94S
TOPEKA BILLARD CLOUDY    81  72  74 CALM      29.99R
TOPEKA FORBES  CLOUDY    83  69  62 NE5       29.99R
$$



USA.gov is the U.S. government's official web portal to all federal, state and local government web resources and services.